Regional Weather Roundup
Issued by NWS Bismarck, ND

Home | Current Version | Previous Version | Text Only | Print | Product List | Glossary On
Versions: 1 2 3 4 5 6 7 8 9 10 11 12 13 14 15 16 17 18 19 20 21 22 23 24 25 26 27 28 29 30 31 32 33 34 35 36 37 38 39 40 41 42 43 44 45 46 47 48 49 50
000
ASUS43 KBIS 060902
RWRBIS

NWR BROADCAST TEXT
NATIONAL WEATHER SERVICE BISMARCK ND
400 AM CDT FRI MAY 06 2016

NOTE: "FAIR" INDICATES FEW OR NO CLOUDS BELOW 12,000 FEET WITH NO
SIGNIFICANT WEATHER AND/OR OBSTRUCTIONS TO VISIBILITY.


CITY           SKY/WX    TMP DP  RH WIND       PRES   REMARKS
WILLISTON      CLOUDY    63  43  48 N17       29.85R
MINOT          CLOUDY    70  39  32 W10       29.74S
MINOT AFB      CLOUDY    60  42  50 W10       29.74R
BISMARCK       CLEAR     49  45  86 CALM      29.78S
DICKINSON      PTCLDY    54  44  69 W8        29.79F
GARRISON         N/A     56  43  61 CALM      29.76F
HETTINGER ARPT CLOUDY    46  42  86 CALM      29.84F
JAMESTOWN      CLEAR     53  46  77 S8        29.75F
CARRINGTON     FAIR      66  50  55 SW12      29.76S
HAZEN          FAIR      52  45  76 NW5       29.80R
OAKES            N/A    N/A N/A N/A MISG        N/A
STANLEY        FAIR      64  41  42 NW14      29.83R
$$

CITY           SKY/WX    TMP DP  RH WIND       PRES   REMARKS
GRAND FORKS    CLEAR     64  48  56 SW12      29.68F
GRAND FORKS AF CLEAR     64  48  55 W10       29.69F
DEVILS LAKE    CLOUDY    62  45  53 SW9       29.72S
FARGO          MOCLDY    64  42  44 S9        29.75S
CAVALIER       FAIR      70  41  35 W9        29.66R
GRAFTON        FAIR      61  45  55 SW10      29.68F
GWINNER        FAIR      63  45  51 SW12      29.78F
LANGDON        FAIR      55  41  58 SW7       29.71F
$$

CITY           SKY/WX    TMP DP  RH WIND       PRES   REMARKS
ABERDEEN       CLEAR     61  46  57 S8        29.79S
MOBRIDGE       CLOUDY    56  49  77 SE5       29.77S
BUFFALO          N/A     66  40  38 NW5       29.79F
RAPID CITY     CLEAR     54  39  57 CALM      29.86F
GLASGOW        CLOUDY    57  40  52 N23G32    29.94S
SIDNEY         CLOUDY    64  41  42 N14       29.85R
WOLF POINT     MOCLDY    61  44  53 N25G40    29.88R HAZE
GLENDIVE       MOCLDY    64  39  39 N9        29.88R
MILES CITY     CLOUDY    60  47  61 N9        29.86R
BAKER          MOCLDY    55  45  68 CALM      29.87R
$$

CITY           SKY/WX    TMP DP  RH WIND       PRES   REMARKS
BILLINGS       MOCLDY    63  43  48 N17       29.93R
GREAT FALLS    CLOUDY    49  41  74 N10       30.17R
$$





USA.gov is the U.S. government's official web portal to all federal, state and local government web resources and services.